When you browse on this site, cookies collect data to enhance your experience and personalize the content and advertising you see.
Visit our Privacy Policy to learn more. By continuing to use the site, you agree to this use of cookies and data.
  • In Hungary
  • List of Countries
  • For 7 days
  • Water Temperature
  • Satellite Maps
  • Weather Map
  • News
  • Weather Widgets
  • user-avatar
    Login

    Hourly Weather Lubana

    Today, 17 June, Monday

    Time Temperature Precipitation Wind Pressure Humidity
    00:00 +17°C° 0 mm 0 mps 752 mmHg 71%
    01:00 +17°C° 0 mm 0 mps 752 mmHg 71%
    02:00 +17°C° 0 mm 0 mps 752 mmHg 73%
    03:00 +17°C° 0 mm 0 mps 752 mmHg 74%
    04:00 +17°C° 0 mm 0 mps 752 mmHg 75%
    05:00 +18°C° 0 mm 1 mps 752 mmHg 77%
    06:00 +17°C° 0 mm 0 mps 752 mmHg 76%
    07:00 +18°C° 0 mm 0 mps 752 mmHg 76%
    08:00 +19°C° 0 mm 0 mps 752 mmHg 76%
    09:00 +19°C° 0 mm 0 mps 752 mmHg 75%
    10:00 +21°C° 0 mm 1 mps 752 mmHg 74%
    11:00 +22°C° 0 mm 1 mps 752 mmHg 73%
    12:00 +22°C° 0.2 mm 1 mps 752 mmHg 74%
    13:00 +22°C° 0.2 mm 1 mps 752 mmHg 75%
    14:00 +22°C° 0.2 mm 1 mps 752 mmHg 76%
    15:00 +21°C° 0.4 mm 2 mps 752 mmHg 77%
    16:00 +21°C° 0.4 mm 2 mps 752 mmHg 78%
    17:00 +21°C° 0.4 mm 3 mps 752 mmHg 78%
    18:00 +19°C° 0 mm 3 mps 752 mmHg 80%
    19:00 +18°C° 0 mm 3 mps 752 mmHg 82%
    20:00 +17°C° 0 mm 3 mps 753 mmHg 83%
    21:00 +17°C° 0 mm 3 mps 753 mmHg 84%
    22:00 +16°C° 0 mm 3 mps 753 mmHg 85%
    23:00 +16°C° 0 mm 2 mps 754 mmHg 85%

    Tomorrow, 18 June, Tuesday

    Time Temperature Precipitation Wind Pressure Humidity
    00:00 +15°C° 0 mm 2 mps 754 mmHg 85%
    01:00 +14°C° 0 mm 2 mps 754 mmHg 84%
    02:00 +13°C° 0 mm 2 mps 754 mmHg 83%
    03:00 +12°C° 0 mm 2 mps 755 mmHg 83%
    04:00 +12°C° 0 mm 2 mps 755 mmHg 84%
    05:00 +12°C° 0 mm 2 mps 755 mmHg 85%
    06:00 +15°C° 0 mm 2 mps 755 mmHg 76%
    07:00 +17°C° 0 mm 2 mps 755 mmHg 68%
    08:00 +20°C° 0 mm 2 mps 755 mmHg 59%
    09:00 +21°C° 0 mm 2 mps 755 mmHg 54%
    10:00 +22°C° 0 mm 3 mps 755 mmHg 49%
    11:00 +25°C° 0 mm 3 mps 756 mmHg 44%
    12:00 +25°C° 0 mm 3 mps 755 mmHg 43%
    13:00 +26°C° 0 mm 4 mps 755 mmHg 42%
    14:00 +27°C° 0 mm 4 mps 755 mmHg 41%
    15:00 +26°C° 0 mm 4 mps 755 mmHg 43%
    16:00 +26°C° 0 mm 3 mps 755 mmHg 45%
    17:00 +26°C° 0 mm 3 mps 755 mmHg 46%
    18:00 +24°C° 0 mm 3 mps 755 mmHg 55%
    19:00 +21°C° 0 mm 2 mps 755 mmHg 64%
    20:00 +19°C° 0 mm 2 mps 755 mmHg 72%
    21:00 +18°C° 0 mm 1 mps 755 mmHg 75%
    22:00 +16°C° 0 mm 1 mps 755 mmHg 78%
    23:00 +14°C° 0 mm 1 mps 755 mmHg 81%

    Day after tomorrow, 19 June, Wednesday

    Time Temperature Precipitation Wind Pressure Humidity
    00:00 +13°C° 0 mm 1 mps 755 mmHg 82%
    01:00 +13°C° 0 mm 1 mps 756 mmHg 83%
    02:00 +11°C° 0 mm 0 mps 756 mmHg 84%
    03:00 +12°C° 0 mm 0 mps 756 mmHg 83%
    04:00 +12°C° 0 mm 0 mps 756 mmHg 81%
    05:00 +13°C° 0 mm 0 mps 756 mmHg 80%
    06:00 +16°C° 0 mm 0 mps 756 mmHg 72%
    07:00 +18°C° 0 mm 0 mps 756 mmHg 65%
    08:00 +21°C° 0 mm 0 mps 756 mmHg 58%
    09:00 +24°C° 0 mm 1 mps 755 mmHg 54%
    10:00 +26°C° 0 mm 1 mps 755 mmHg 50%
    11:00 +27°C° 0 mm 1 mps 755 mmHg 47%
    12:00 +27°C° 0 mm 2 mps 755 mmHg 44%
    13:00 +28°C° 0 mm 2 mps 755 mmHg 42%
    14:00 +28°C° 0 mm 2 mps 754 mmHg 40%
    15:00 +28°C° 0 mm 2 mps 754 mmHg 41%
    16:00 +27°C° 0 mm 2 mps 754 mmHg 42%
    17:00 +27°C° 0 mm 2 mps 753 mmHg 43%
    18:00 +26°C° 0 mm 2 mps 753 mmHg 52%
    19:00 +24°C° 0 mm 2 mps 753 mmHg 61%
    20:00 +22°C° 0 mm 1 mps 753 mmHg 70%
    21:00 +21°C° 0 mm 1 mps 753 mmHg 74%
    22:00 +20°C° 0 mm 1 mps 753 mmHg 78%
    23:00 +18°C° 0 mm 2 mps 753 mmHg 82%

    20 June, Thursday

    Time Temperature Precipitation Wind Pressure Humidity
    00:00 +18°C° 0 mm 1 mps 753 mmHg 84%
    01:00 +16°C° 0 mm 1 mps 753 mmHg 87%
    02:00 +16°C° 0 mm 1 mps 752 mmHg 89%
    03:00 +16°C° 0 mm 1 mps 752 mmHg 88%
    04:00 +16°C° 0 mm 1 mps 752 mmHg 88%
    05:00 +16°C° 0 mm 1 mps 752 mmHg 87%
    06:00 +18°C° 0 mm 2 mps 752 mmHg 80%
    07:00 +20°C° 0 mm 2 mps 752 mmHg 74%
    08:00 +21°C° 0 mm 3 mps 752 mmHg 68%
    09:00 +22°C° 0.1 mm 3 mps 751 mmHg 70%
    10:00 +22°C° 0.1 mm 3 mps 751 mmHg 73%
    11:00 +24°C° 0.1 mm 3 mps 751 mmHg 76%
    12:00 +24°C° 0.5 mm 3 mps 751 mmHg 78%
    13:00 +25°C° 0.5 mm 3 mps 751 mmHg 81%
    14:00 +25°C° 0.5 mm 4 mps 750 mmHg 83%
    15:00 +25°C° 0.6 mm 4 mps 750 mmHg 83%
    16:00 +25°C° 0.6 mm 3 mps 750 mmHg 82%
    17:00 +25°C° 0.6 mm 3 mps 750 mmHg 82%
    18:00 +25°C° 0.2 mm 3 mps 750 mmHg 85%
    19:00 +24°C° 0.2 mm 3 mps 750 mmHg 87%
    20:00 +23°C° 0.2 mm 2 mps 750 mmHg 90%
    21:00 +21°C° 0 mm 2 mps 750 mmHg 93%
    22:00 +20°C° 0 mm 2 mps 750 mmHg 95%
    23:00 +19°C° 0 mm 2 mps 750 mmHg 97%

    21 June, Friday

    Time Temperature Precipitation Wind Pressure Humidity
    00:00 +19°C° 0 mm 2 mps 750 mmHg 98%
    01:00 +18°C° 0 mm 2 mps 750 mmHg 98%
    02:00 +19°C° 0 mm 1 mps 750 mmHg 98%
    03:00 +19°C° 0 mm 1 mps 750 mmHg 98%
    04:00 +20°C° 0 mm 1 mps 751 mmHg 98%
    05:00 +20°C° 0 mm 1 mps 751 mmHg 98%
    06:00 +21°C° 0 mm 1 mps 751 mmHg 93%
    07:00 +21°C° 0 mm 0 mps 751 mmHg 88%
    08:00 +22°C° 0 mm 0 mps 751 mmHg 83%
    09:00 +25°C° 0.1 mm 1 mps 751 mmHg 81%
    10:00 +25°C° 0.1 mm 1 mps 751 mmHg 78%
    11:00 +25°C° 0.1 mm 2 mps 751 mmHg 76%
    12:00 +26°C° 0.2 mm 2 mps 751 mmHg 71%
    13:00 +26°C° 0.2 mm 2 mps 751 mmHg 67%
    14:00 +27°C° 0.2 mm 1 mps 750 mmHg 62%
    15:00 +27°C° 0.1 mm 2 mps 750 mmHg 63%
    16:00 +27°C° 0.1 mm 2 mps 750 mmHg 64%
    17:00 +27°C° 0.1 mm 2 mps 750 mmHg 65%
    18:00 +26°C° 0.2 mm 2 mps 749 mmHg 73%
    19:00 +24°C° 0.2 mm 2 mps 749 mmHg 82%
    20:00 +23°C° 0.2 mm 1 mps 749 mmHg 90%
    21:00 +22°C° 0.9 mm 1 mps 749 mmHg 92%
    22:00 +22°C° 0.9 mm 1 mps 749 mmHg 94%
    23:00 +19°C° 0.9 mm 0 mps 749 mmHg 96%

    22 June, Saturday

    Time Temperature Precipitation Wind Pressure Humidity
    00:00 +21°C° 0.1 mm 1 mps 749 mmHg 96%
    01:00 +20°C° 0.1 mm 1 mps 749 mmHg 97%
    02:00 +20°C° 0.1 mm 1 mps 749 mmHg 97%
    03:00 +19°C° 0 mm 2 mps 749 mmHg 97%
    04:00 +19°C° 0 mm 2 mps 749 mmHg 97%
    05:00 +19°C° 0 mm 2 mps 750 mmHg 97%
    06:00 +20°C° 0 mm 2 mps 750 mmHg 91%
    07:00 +21°C° 0 mm 2 mps 750 mmHg 85%
    08:00 +21°C° 0 mm 2 mps 751 mmHg 79%
    09:00 +24°C° 0 mm 3 mps 751 mmHg 70%
    10:00 +25°C° 0 mm 3 mps 751 mmHg 62%
    11:00 +26°C° 0 mm 3 mps 751 mmHg 53%
    12:00 +27°C° 0 mm 3 mps 751 mmHg 51%
    13:00 +27°C° 0 mm 3 mps 752 mmHg 48%
    14:00 +27°C° 0 mm 4 mps 752 mmHg 45%
    15:00 +27°C° 0 mm 4 mps 752 mmHg 46%
    16:00 +26°C° 0 mm 4 mps 752 mmHg 47%
    17:00 +25°C° 0 mm 4 mps 753 mmHg 48%
    18:00 +22°C° 0 mm 4 mps 753 mmHg 54%
    19:00 +20°C° 0 mm 3 mps 753 mmHg 60%
    20:00 +18°C° 0 mm 3 mps 754 mmHg 67%
    21:00 +17°C° 0 mm 2 mps 754 mmHg 67%
    22:00 +15°C° 0 mm 2 mps 755 mmHg 68%
    23:00 +13°C° 0 mm 2 mps 755 mmHg 69%
    Show more